[[{"header":{"parameterUnit":"m.s-1","parameterCategory":1,"la1":30.2991,"la2":30.254,"lo1":-89.0895,"lo2":-89.0444,"dy":0.0017,"dx":0.0017,"nx":28,"ny":28,"refTime":"2025-02-26T03:00:00:Z","depth":0,"parameterNumber":2,"parameterNumberName":"U-component_of_WINDS"},"data":[0,0,0,0,0,0,0,0,0,0,0,0,0,0,0,0,0,0,0,0,0,0,0,0,0,0,0,0,0,0,0,0,0,0,0,0,0,0,0,0,0,0,0,0,0,0,0,0,0,0,0,0,0,0,0,0,0,0,0.7189,0.719,0,0.7242,0.7243,0.7244,0.7235,0.7234,0.7233,0.7232,0.7286,0.7288,0.7291,0,0,0,0,0,0,0,0,0,0,0,0,0,0.708,0.7082,0.7189,0.719,0.7191,0.7242,0.7243,0.7244,0.7235,0.7234,0.7232,0.7231,0.7285,0.7288,0.7291,0,0,0,0,0,0,0,0,0,0,0,0,0,0.713,0.7083,0.7189,0.7192,0.7193,0.7242,0.7243,0.7244,0.7235,0.7234,0.7232,0.7231,0.7284,0.7288,0.7291,0.734,0,0,0.7302,0.7303,0,0,0,0,0,0,0,0,0.7127,0.7134,0.7191,0.7192,0.7193,0.723,0.7224,0.7276,0.7235,0.7219,0.7232,0.723,0.7269,0.7273,0.7286,0.7343,0.7345,0.7302,0.7304,0.7306,0.7307,0,0,0,0,0,0,0,0.7123,0.7131,0.721,0.7192,0.7193,0.7191,0.7197,0.7234,0.7251,0.722,0.722,0.7226,0.7269,0.7283,0.7288,0.7346,0.7302,0.7305,0.7307,0.7309,0.7447,0.7448,0,0,0,0,0,0,0.7119,0.7128,0.7209,0.7212,0.7156,0.7194,0.72,0.722,0.7251,0.7254,0.7227,0.7226,0.7278,0.7284,0.7289,0.735,0.7306,0.7309,0.7311,0.7445,0.7447,0.7449,0,0,0,0,0,0,0.7117,0.7126,0.7206,0.717,0.718,0.7198,0.722,0.7222,0.7236,0.7256,0.7259,0.7239,0.7277,0.7285,0.7328,0.7352,0.731,0.7314,0.7443,0.7446,0.7448,0.7471,0,0,0,0,0,0,0.7114,0.7125,0.7144,0.7171,0.7182,0.7244,0.7221,0.7224,0.7242,0.724,0.7267,0.7271,0.7276,0.7323,0.7332,0.7356,0.7316,0.7441,0.7444,0.7447,0.7468,0.7474,0.7479,0,0,0,0,0,0.711,0.7149,0.7145,0.7155,0.7206,0.7246,0.7252,0.7258,0.7244,0.7263,0.7276,0.727,0.7348,0.7327,0.7337,0.7363,0.744,0.7444,0.7447,0.7466,0.7473,0.7479,0,0,0,0,0,0,0.7124,0.7152,0.7149,0.7197,0.7219,0.7244,0.7269,0.7265,0.7292,0.7289,0.7295,0.7302,0.7346,0.7358,0.7336,0.7412,0.7392,0.7397,0.7403,0.741,0.7415,0.7411,0.7319,0,0,0,0,0,0.7133,0.7163,0.7186,0.7226,0.7237,0.7251,0.7269,0.7271,0.7294,0.7304,0.732,0.7342,0.7372,0.7391,0.7419,0.747,0.7476,0.7492,0.7497,0.7502,0.7507,0.7535,0.7543,0.7461,0.7461,0.7461,0,0,0.7152,0.7171,0.7189,0.723,0.7247,0.7278,0.7259,0.7292,0.7316,0.7309,0.7351,0.7364,0.7389,0.7437,0.7458,0.7448,0.7531,0.7506,0.7509,0.7512,0.754,0.7548,0.7555,0.7463,0.7463,0.7462,0,0,0.7202,0.7219,0.7255,0.7273,0.73,0.7309,0.7317,0.7343,0.7351,0.7394,0.7389,0.7417,0.7467,0.7486,0.7502,0.756,0.7555,0.7569,0.7597,0.7624,0.7631,0.7637,0.7658,0.7666,0.7573,0.7574,0.7574,0,0.7222,0.7269,0.7274,0.7309,0.7327,0.7322,0.7359,0.7376,0.741,0.7423,0.7411,0.7475,0.7492,0.7544,0.7558,0.7571,0.7582,0.7566,0.7629,0.7635,0.7641,0.7661,0.7669,0.7575,0.7575,0.7575,0.7575,0,0.7293,0.7325,0.7351,0.7385,0.7406,0.7441,0.7452,0.7473,0.7473,0.7484,0.7527,0.7547,0.758,0.7592,0.7593,0.7645,0.7638,0.7628,0.7607,0.765,0.767,0.7678,0.7577,0.7577,0.7576,0.7576,0,0,0.7354,0.7391,0.74,0.7416,0.7445,0.747,0.7505,0.7537,0.7555,0.7579,0.7609,0.7652,0.7643,0.7662,0.7665,0.7689,0.7734,0.7676,0.7676,0.7687,0.7794,0.7802,0.7811,0.7731,0.7733,0.7734,0.7792,0,0.7408,0.7471,0.7477,0.7533,0.7563,0.7559,0.759,0.7611,0.7621,0.7649,0.766,0.7691,0.7676,0.7687,0.7711,0.7724,0.7756,0.772,0.776,0.7761,0.7755,0.7821,0.783,0.7884,0.7799,0.7801,0.7802,0,0.7479,0.7506,0.7565,0.7591,0.7604,0.7631,0.7661,0.7687,0.7711,0.7717,0.7738,0.7738,0.7774,0.7752,0.7802,0.7778,0.7794,0.7803,0.7805,0.781,0.7785,0.7829,0.7901,0.7909,0.7814,0.7813,0.7812,0,0.752,0.757,0.7612,0.7626,0.7656,0.7676,0.7689,0.7712,0.7731,0.7757,0.777,0.78,0.7817,0.784,0.7848,0.7831,0.7899,0.7877,0.7906,0.7905,0.7921,0.792,0.7998,0.793,0.793,0.793,0.7929,0,0.758,0.7617,0.7631,0.7657,0.7698,0.7704,0.7745,0.7758,0.7778,0.7806,0.7804,0.7831,0.7839,0.7868,0.7874,0.7916,0.7923,0.793,0.7931,0.793,0.793,0.7942,0.7939,0.7932,0.7931,0.7931,0.7931,0,0.7632,0.7643,0.7689,0.7714,0.7722,0.7751,0.7773,0.7798,0.7808,0.7844,0.7853,0.7868,0.7902,0.7912,0.7952,0.7956,0.8005,0.8003,0.7998,0.7998,0.8027,0.8024,0.8116,0.8129,0.8051,0.8052,0.8053,0,0.7671,0.7699,0.7727,0.7746,0.7761,0.7792,0.7811,0.7818,0.7839,0.7869,0.7891,0.7924,0.7951,0.8004,0.8019,0.805,0.8049,0.8079,0.8054,0.8052,0.8051,0.805,0.8053,0.8084,0.8085,0.8086,0.8086,0,0.7738,0.7742,0.777,0.7801,0.7825,0.7849,0.7873,0.7888,0.7899,0.7922,0.7957,0.7977,0.8019,0.8052,0.8083,0.8097,0.8094,0.8094,0.8102,0.8103,0.8099,0.8102,0.8012,0.8092,0.8091,0.8091,0.8091,0.809,0.7785,0.781,0.7834,0.7867,0.7885,0.7907,0.7932,0.7946,0.7974,0.8009,0.8011,0.8048,0.8072,0.8114,0.8129,0.8159,0.815,0.8162,0.8166,0.8169,0.8172,0.8093,0.8164,0.8164,0.8164,0.8164,0.8164,0,0.7853,0.7868,0.7898,0.7931,0.7956,0.7951,0.7976,0.7998,0.8031,0.8053,0.808,0.812,0.8152,0.817,0.8202,0.8222,0.8221,0.823,0.8229,0.8233,0.8177,0.8167,0.823,0.823,0.823,0.823,0.823,0.823,0.7891,0.7934,0.7941,0.7993,0.8008,0.8045,0.806,0.8081,0.8099,0.8144,0.817,0.8182,0.8202,0.8236,0.8265,0.827,0.8282,0.8292,0.8296,0.8243,0.8237,0.823,0.8221,0.8295,0.8295,0.835,0.835,0.835]},{"header":{"parameterUnit":"m.s-1","parameterCategory":1,"la1":30.2991,"la2":30.254,"lo1":-89.0895,"lo2":-89.0444,"dy":0.0017,"dx":0.0017,"nx":28,"ny":28,"refTime":"2025-02-26T03:00:00:Z","depth":0,"parameterNumber":3,"parameterNumberName":"V-component_of_WINDS"},"data":[0,0,0,0,0,0,0,0,0,0,0,0,0,0,0,0,0,0,0,0,0,0,0,0,0,0,0,0,0,0,0,0,0,0,0,0,0,0,0,0,0,0,0,0,0,0,0,0,0,0,0,0,0,0,0,0,0,0,0.5106,0.5106,0,0.5106,0.5106,0.5106,0.5082,0.5081,0.508,0.508,0.5081,0.5081,0.5082,0,0,0,0,0,0,0,0,0,0,0,0,0,0.5086,0.5086,0.5106,0.5106,0.5106,0.5106,0.5106,0.5106,0.5082,0.5081,0.508,0.508,0.5081,0.5081,0.5082,0,0,0,0,0,0,0,0,0,0,0,0,0,0.5091,0.5086,0.5106,0.5094,0.5093,0.5106,0.5106,0.5106,0.5082,0.5081,0.508,0.5079,0.508,0.5081,0.5082,0.5107,0,0,0.5085,0.5086,0,0,0,0,0,0,0,0,0.5091,0.5092,0.5096,0.5095,0.5094,0.5093,0.5099,0.5107,0.5082,0.5086,0.508,0.5079,0.5086,0.5086,0.5088,0.5108,0.5108,0.5085,0.5086,0.5086,0.5086,0,0,0,0,0,0,0,0.509,0.5092,0.5106,0.5096,0.5095,0.5089,0.5088,0.5101,0.5091,0.5086,0.5084,0.5084,0.5085,0.5088,0.5088,0.5108,0.5085,0.5086,0.5087,0.5087,0.5148,0.5149,0,0,0,0,0,0,0.5092,0.5092,0.5106,0.5106,0.509,0.509,0.509,0.5094,0.5091,0.509,0.5085,0.5083,0.5086,0.5087,0.5088,0.5118,0.5086,0.5087,0.5088,0.5147,0.5148,0.5149,0,0,0,0,0,0,0.5091,0.5093,0.5106,0.5098,0.51,0.5091,0.5097,0.5095,0.5097,0.5091,0.5089,0.5089,0.5086,0.5087,0.5103,0.5118,0.5088,0.5088,0.5145,0.5147,0.5148,0.5178,0,0,0,0,0,0,0.5091,0.5093,0.5103,0.5099,0.51,0.5121,0.5098,0.5095,0.5099,0.5096,0.5094,0.5093,0.5085,0.5102,0.5104,0.5118,0.5089,0.5144,0.5146,0.5148,0.5175,0.518,0.5184,0,0,0,0,0,0.509,0.5111,0.5103,0.5105,0.5112,0.5122,0.5123,0.5113,0.51,0.511,0.5105,0.5093,0.5115,0.5103,0.5106,0.5121,0.5143,0.5146,0.5148,0.5174,0.5179,0.5184,0,0,0,0,0,0,0.5117,0.511,0.5102,0.5122,0.5123,0.5118,0.513,0.5119,0.5124,0.5121,0.5109,0.5108,0.5127,0.5125,0.5112,0.5145,0.5127,0.513,0.5146,0.5151,0.5155,0.5156,0.509,0,0,0,0,0,0.5126,0.5134,0.5128,0.5146,0.5147,0.5138,0.5142,0.5134,0.5135,0.5135,0.5132,0.5133,0.514,0.5145,0.5152,0.5175,0.5174,0.5186,0.519,0.5194,0.5197,0.521,0.5215,0.5157,0.5157,0.5157,0,0,0.5143,0.514,0.5147,0.5151,0.5151,0.5161,0.5139,0.515,0.5157,0.5137,0.5152,0.515,0.515,0.517,0.5178,0.5169,0.5213,0.5197,0.52,0.5201,0.5213,0.5218,0.5223,0.5158,0.5158,0.5158,0,0,0.518,0.5178,0.5194,0.5194,0.5193,0.5187,0.5191,0.5187,0.5185,0.52,0.5185,0.5193,0.5206,0.5207,0.5209,0.5245,0.5234,0.5248,0.5271,0.5283,0.5288,0.5292,0.5306,0.5311,0.525,0.525,0.525,0,0.5202,0.5215,0.5203,0.5215,0.5218,0.5199,0.5215,0.5216,0.5218,0.522,0.5209,0.5225,0.5224,0.5244,0.5253,0.5255,0.5259,0.5248,0.5288,0.5292,0.5296,0.5309,0.5314,0.5252,0.5252,0.5252,0.5252,0,0.5243,0.5252,0.5265,0.5267,0.5271,0.5284,0.5275,0.528,0.5271,0.5267,0.5282,0.528,0.5285,0.5289,0.5281,0.5308,0.5303,0.529,0.5272,0.5303,0.5315,0.532,0.5255,0.5254,0.5253,0.5253,0,0,0.5298,0.5292,0.5297,0.5298,0.5296,0.5303,0.5316,0.5321,0.5326,0.5328,0.5339,0.5349,0.5338,0.534,0.5332,0.5343,0.5373,0.5329,0.5329,0.5338,0.5403,0.5413,0.5419,0.5365,0.5365,0.5366,0.5403,0,0.5335,0.5356,0.5345,0.5369,0.5378,0.536,0.5371,0.5371,0.5367,0.5374,0.5368,0.5377,0.536,0.5362,0.5371,0.5367,0.5386,0.5364,0.5376,0.5376,0.5378,0.5426,0.5437,0.5472,0.5408,0.5409,0.5409,0,0.5381,0.5384,0.5408,0.5404,0.5407,0.5418,0.5422,0.5428,0.5428,0.5424,0.5426,0.5415,0.5428,0.5408,0.5426,0.5411,0.5415,0.5414,0.5415,0.5417,0.5396,0.543,0.5483,0.5489,0.5416,0.5416,0.5415,0,0.542,0.543,0.5446,0.5447,0.5443,0.545,0.5449,0.5447,0.5451,0.5454,0.5457,0.5461,0.5464,0.5468,0.5459,0.5445,0.5478,0.5458,0.5476,0.5476,0.5485,0.5484,0.554,0.5485,0.5485,0.5485,0.5484,0,0.5463,0.5479,0.5464,0.5474,0.5491,0.5478,0.5495,0.5492,0.549,0.5499,0.5484,0.5493,0.5479,0.5487,0.5479,0.5495,0.5497,0.5494,0.5492,0.5496,0.5497,0.55,0.5498,0.5486,0.5486,0.5485,0.5485,0,0.5511,0.5501,0.5518,0.5512,0.551,0.5523,0.5518,0.5527,0.5521,0.5533,0.5535,0.5526,0.5534,0.5524,0.5532,0.5527,0.5549,0.5543,0.5549,0.5548,0.5567,0.5566,0.5628,0.5636,0.5574,0.5575,0.5575,0,0.554,0.5551,0.5546,0.5551,0.5551,0.5558,0.5562,0.5549,0.5554,0.5554,0.5563,0.5569,0.5574,0.5588,0.5582,0.5588,0.5583,0.5604,0.5584,0.5587,0.5584,0.5585,0.5586,0.5609,0.5609,0.561,0.561,0,0.5592,0.5587,0.5592,0.5596,0.5601,0.5604,0.5605,0.561,0.5596,0.5602,0.561,0.5614,0.5621,0.5628,0.5632,0.5631,0.5619,0.5617,0.5621,0.5627,0.563,0.563,0.5562,0.5616,0.5615,0.5615,0.5615,0.5614,0.5632,0.5642,0.564,0.5647,0.5646,0.5648,0.5656,0.5651,0.5657,0.5662,0.5654,0.5664,0.5663,0.5667,0.5666,0.5674,0.5665,0.5672,0.5674,0.5676,0.5679,0.5628,0.5675,0.5675,0.5675,0.5674,0.5674,0,0.5685,0.5683,0.5689,0.5691,0.5697,0.5684,0.5684,0.569,0.5699,0.5699,0.5704,0.5713,0.5719,0.5714,0.5719,0.5727,0.5721,0.5729,0.5729,0.5729,0.5687,0.5683,0.5733,0.5733,0.5733,0.5733,0.5733,0.5733,0.5713,0.5729,0.5723,0.5739,0.5736,0.5746,0.5747,0.5749,0.5749,0.576,0.5765,0.5761,0.5758,0.5763,0.5769,0.5767,0.5771,0.578,0.5777,0.5738,0.5732,0.5726,0.5723,0.5781,0.5781,0.5818,0.5819,0.5819]}]]